Flag for Canada Weather past 2 weeks in Markham, Ontario, Canada

Now
57 °F

Passing clouds.


Feels Like: 57 °F
Forecast: 52 / 71 °F
Wind: 3 mph from North

Location: Toronto Buttonville

Current Time: Jul 31, 2014 at 2:28:51 AM

Latest Report: Jul 31, 2014 at 2:00 AM


Visibility: 15 mi

Pressure: 29.97 "Hg

Humidity: 88%

Dew point: 54 °F

Location of MarkhamLocation

Historic Weather in Markham — Graph

°F

Markham temperature yesterday

Maximum temperature yesterday: 73 °F (at 1:00 PM)
Minimum temperature yesterday: 54 °F (at 3:00 AM)
Average temperature yesterday: 63 °F

Past Weeks' High & Low Weather Summary

 TemperatureHumidityPressure
High84 °F (Jul 27, 4:00 PM)100% (Jul 20, 4:00 AM)30.25 "Hg (Jul 20, 4:00 AM)
Low48 °F (Jul 17, 6:00 AM)33% (Jul 18, 8:00 PM)29.61 "Hg (Jul 27, 6:00 PM)
Average66 °F72%29.98 "Hg
* Reported Jul 16 1:00 AM — Jul 31 1:00 AM, Markham, Weather by CustomWeather, © 2014

Note: Actual official high and low records may vary slightly from our data, if they occured in-between our weather recording intervals... More about our weather records

Advertising

Markham weather history for previous 24 hours

 ConditionsComfort  
Time TempWeatherWind HumidityBarometerVisibility
1:00 AM
Jul 31
57 °FPassing clouds.3 mph94%29.97 "Hg12 mi
12:00 AM61 °FPassing clouds.3 mph88%29.98 "Hg12 mi
11:00 PM
Jul 30
59 °FPassing clouds.2 mph94%29.98 "Hg15 mi
10:00 PM61 °FPassing clouds.3 mph88%29.98 "Hg15 mi
9:00 PM63 °FScattered clouds.2 mph83%29.97 "Hg15 mi
8:00 PM64 °FScattered clouds.5 mph73%29.96 "Hg15 mi
7:00 PM68 °FScattered clouds.10 mph64%29.95 "Hg15 mi
6:00 PM73 °FScattered clouds.7 mph50%29.93 "Hg15 mi
5:00 PM72 °FScattered clouds.5 mph50%29.93 "Hg15 mi
4:00 PM70 °FScattered clouds.3 mph60%29.94 "Hg15 mi
3:52 PMN/AScattered clouds.3 mphN/AN/A15 mi
3:00 PM70 °FScattered clouds.9 mph60%29.94 "Hg15 mi
2:54 PMN/AScattered clouds.7 mphN/AN/A15 mi
2:00 PM64 °FSprinkles. Partly sunny.8 mph64%29.95 "Hg14 mi
1:55 PMN/ASprinkles.20 mphN/AN/A14 mi
1:00 PM73 °FScattered clouds.8 mph50%29.94 "Hg15 mi
12:00 PM72 °FBroken clouds.5 mph50%29.95 "Hg15 mi
11:00 AM70 °FScattered clouds.6 mph57%29.96 "Hg15 mi
10:00 AM66 °FBroken clouds.2 mph68%29.96 "Hg14 mi
9:00 AM63 °FPartly sunny.2 mph77%29.96 "Hg14 mi
8:00 AM59 °FPartly sunny.No wind94%29.96 "Hg13 mi
7:00 AM55 °FPassing clouds.No wind94%29.95 "Hg15 mi
6:00 AM54 °FPassing clouds.No wind100%29.94 "Hg12 mi
5:00 AM55 °FPassing clouds.No wind94%29.93 "Hg12 mi
4:00 AM55 °FPassing clouds.2 mph94%29.93 "Hg12 mi
3:00 AM54 °FPassing clouds.2 mph100%29.93 "Hg15 mi
2:00 AM55 °FPassing clouds.No wind100%29.94 "Hg15 mi
Weather by CustomWeather, © 2014

See weather overviewHow to use our weather pages